CZ-3B DEB, 39333

Orbit data source: Space-Track

CZ-3B DEB, 39333 is space debris in HEO originally from a launch on Sat, 04 Sep 2010 UTC launched from the Xichang Space Center, China (XSC). Debris objects in space refer to the collection of defunct objects orbiting the Earth. Examples of debris include non-operational satellites, rocket bodies, and fragments generated from explosions, collisions, or faulty payload assembly.

Loading next visibility...
Identifier
39333, 2010-042E
Orbit
HEO
Last TLE update
20 hours ago
Origin
Manufacturer
CALT
Mission
Spacecraft
Bus & Motor
Unknown
Mass
Unknown
Launch date (UTC)
2010-09-04 (15 years ago)
Launch vehicle
Unknown
Launch site
Xichang Space Center, China (XSC)
Object type
Payload
Rocket body
Debris
Shape & HBR
Unknown
Radar Cross Section
Medium (>0.1 m² and <1 m²)

Expand to show TLE details & history

TLE from 20 hours ago
0 CZ-3B DEB
1 39333U 10042E   25181.60056381  .00000191  00000-0  38882-2 0  9996
2 39333  23.5590 117.3001 7491889 324.3324 302.1449  1.91215091 83381
Epoch: 2025-06-30T14:24Z
TLE epoch observation values (Epoch: 2025-06-30T14:24:48.713Z)
Latitude
0.16973°
Longitude
161.70449°
Altitude
24,677.453 km
Speed
3.336 km/s
True Right ascension
19h 47m 15s
True Declination
0° 10' 10"
Sunlit
Object was in daylight at epoch
Visualization orbit readout
Latitude
15.30293°
Longitude
123.12301°
Altitude
40,798.412 km
Speed
1.537 km/s
Apparent Right ascension
16h 48m 52s
Apparent Declination
10° 44' 19"
Sunlit
Object is in daylight
Visualization observer readout
Local Sidereal Time
21:55:47
Azimuth
269.891° W
Elevation
17.012°
Doppler factor
1
Orbital elements
Apogee altitude
41,590.49 km
Perigee altitude
499.945 km
Semi-major axis
27,423.354 km
Eccentricity
0.74919
Inclination
23.559°
RAAN
117.3001°
Arg. of periapsis
324.3324°
True anomaly
Unknown
Mean anomaly
302.1449°
Eccentric anomaly
Unknown
Mean motion
0.47793 °/min
Orbital period
753.25 mins
BSTAR
0.0038882
Loading maneuver chart data...
Loading SW <> Apogee altitude chart data...
Loading historical data...
Loading historical data...
Loading historical data...
Loading historical data...
Loading historical data...
Loading historical data...
Loading historical data...

CZ-3B DEB Visibility forecast

Observer location: undefined°, undefined°

Span
Click to sort rows by Start time (UTC) header in descending order
Start Az.
Max El. time (UTC)
Max El. Az.
Max El.
End time (UTC)
End Az.
50 mins2025-07-01 10:17:21.824Z269.877° W2025-07-01 10:17:21.824Z269.877° W16.303°2025-07-01 11:07:21.824Z273.137° WNW
122 mins2025-07-02 02:02:21.824Z95.228° ESE2025-07-02 03:12:21.824Z104.092° ESE12.436°2025-07-02 04:04:21.824Z109.902° ESE
180 mins2025-07-02 07:17:21.824Z279.28° WNW2025-07-02 08:24:21.824Z274.116° WNW18.302°2025-07-02 10:17:21.824Z276.782° WNW
|